User: anonymous
Location: Unspecified
(0.0000°N, 0.0000°E)
Time: 17:32:17
(UTC+00:00)
Language:

CUTE 1.7 & AOD 2 - Orbit

View from above orbital plane
View from above orbital plane
View from above satellite
View from above satellite

Ground track
Ground track

The orbit data is extracted from the following two-line orbital elements,

1 32785U 08021C   14259.45261255  .00001532  00000-0  18314-3 0   539
2 32785 097.6907 307.7147 0012530 245.1332 239.8804 14.85537176345570
Epoch (UTC): 16 September 2014 10:51:45
Eccentricity: 0.0012530
inclination: 97.6907°
perigee height: 603 km
apogee height: 620 km
right ascension of ascending node: 307.7147°
argument of perigee: 245.1332°
revolutions per day: 14.85537176
mean anomaly at epoch: 239.8804°
orbit number at epoch: 34557

The dashed part of the orbit path shows where the satellite is in the earth's shadow,  

DLR